Weather History for Dillon, MT

Change the Weather History Date:

Monday, March 4, 2013

  Actual Average Record
Temperature  
Mean Temperature 23 °F 31 °F  
Max Temperature 31 °F 43 °F 63 °F (1987)
Min Temperature 14 °F 19 °F -14 °F (1989)
Degree Days  
Heating Degree Days 42    
Month to date heating degree days 119  
Since 1 July heating degree days 5534  
Cooling Degree Days 0    
Month to date cooling degree days 0  
Year to date cooling degree days 0  
Moisture  
Dew Point 7 °F    
Average Humidity 54    
Maximum Humidity 77    
Minimum Humidity 31    
Precipitation  
Precipitation T in 0.01 in 0.28 in (2009)
Month to date precipitation T 0.05  
Year to date precipitation 0.26 0.57  
Snow  
Snow 0.00 in - - ()
Snow Depth 0.00 in    
Sea Level Pressure  
Sea Level Pressure 30.24 in    
Wind  
Wind Speed 9 mph (NE)    
Max Wind Speed 24 mph    
Max Gust Speed 29 mph    
Visibility 10 miles    
Events Snow    
T = Trace of Precipitation, MM = Missing Value Source: NWS Daily Summary

Daily Weather History Graph

Daily Weather History Graph

Search for Another Location

Airport:

Trip Planner

Search our weather history database for the weather conditions in past years. The results will help you decide how hot, cold, wet, or windy it might be!

Date:

Astronomy

Mar. 04, 2013 Rise Set
Actual Time 7:02 AM MST 6:21 PM MST
Civil Twilight 6:32 AM MST 6:51 PM MST
Nautical Twilight 5:58 AM MST 7:25 PM MST
Astronomical Twilight 5:24 AM MST 8:00 PM MST
Moon 1:27 AM MST (3/4) 10:55 AM MST (3/4)
Length of Visible Light 12h 18m
Length of Day
11h 19m
Waning Gibbous, 51% of the Moon is Illuminated
Mar 4
Waning Gibbous
Mar 4
Last Quarter
Mar 11
New
Mar 19
First Quarter
Mar 27
Full

Hourly Weather History & Observations

Time (MST) Temp. Windchill Dew Point Humidity Pressure Visibility Wind Dir Wind Speed Gust Speed Precip Events Conditions
12:53 AM 23.0 °F - 7.0 °F 50% 30.02 in 10.0 mi Calm Calm - N/A   Overcast
1:53 AM 19.9 °F 4.3 °F 14.0 °F 78% 30.08 in 10.0 mi NE 19.6 mph - N/A   Overcast
2:53 AM 19.0 °F 3.6 °F 14.0 °F 81% 30.13 in 10.0 mi NE 18.4 mph 25.3 mph N/A   Overcast
3:39 AM 19.4 °F 6.0 °F 14.0 °F 80% 30.03 in 4.0 mi NNE 13.8 mph - 0.00 in Snow Light Snow
3:53 AM 19.0 °F 6.1 °F 14.0 °F 81% 30.15 in 4.0 mi NNE 12.7 mph - 0.00 in Snow Light Snow
4:19 AM 19.4 °F 4.5 °F 10.4 °F 68% 30.05 in 10.0 mi NNE 17.3 mph - 0.00 in   Overcast
4:53 AM 19.0 °F 4.5 °F 10.0 °F 68% 30.19 in 10.0 mi NNE 16.1 mph - 0.00 in   Overcast
5:53 AM 18.0 °F 4.2 °F 9.0 °F 68% 30.23 in 10.0 mi NNE 13.8 mph - N/A   Mostly Cloudy
6:53 AM 18.0 °F 3.6 °F 7.0 °F 62% 30.27 in 10.0 mi NNE 15.0 mph - N/A   Overcast
7:53 AM 18.0 °F 2.2 °F 6.1 °F 60% 30.29 in 10.0 mi NNE 18.4 mph - N/A   Mostly Cloudy
8:53 AM 21.0 °F 6.6 °F 5.0 °F 50% 30.30 in 10.0 mi NNE 17.3 mph - N/A   Scattered Clouds
9:53 AM 23.0 °F 8.7 °F 5.0 °F 46% 30.32 in 10.0 mi NNE 18.4 mph - N/A   Clear
10:53 AM 25.0 °F 18.1 °F 5.0 °F 43% 30.33 in 10.0 mi North 5.8 mph - N/A   Clear
11:53 AM 24.1 °F 18.2 °F 5.0 °F 44% 30.32 in 10.0 mi ESE 4.6 mph - N/A   Overcast
12:53 PM 27.0 °F 20.5 °F 5.0 °F 39% 30.32 in 10.0 mi North 5.8 mph - N/A   Mostly Cloudy
1:53 PM 28.9 °F 22.8 °F 5.0 °F 36% 30.32 in 10.0 mi East 5.8 mph - N/A   Mostly Cloudy
2:53 PM 28.9 °F 21.9 °F 5.0 °F 36% 30.31 in 10.0 mi East 6.9 mph - N/A   Clear
3:53 PM 30.9 °F 26.2 °F 5.0 °F 33% 30.29 in 10.0 mi NE 4.6 mph - N/A   Clear
4:53 PM 30.0 °F 26.5 °F 3.9 °F 33% 30.28 in 10.0 mi ESE 3.5 mph - N/A   Clear
5:53 PM 28.9 °F 25.2 °F 3.9 °F 35% 30.28 in 10.0 mi ENE 3.5 mph - N/A   Clear
6:53 PM 19.9 °F 10.1 °F 6.1 °F 55% 30.33 in 10.0 mi ENE 8.1 mph - N/A   Clear
7:53 PM 19.9 °F 13.4 °F 7.0 °F 57% 30.34 in 10.0 mi SE 4.6 mph - N/A   Clear
8:53 PM 18.0 °F 12.7 °F 6.1 °F 60% 30.32 in 10.0 mi WNW 3.5 mph - N/A   Clear
9:53 PM 18.0 °F - 5.0 °F 57% 30.31 in 10.0 mi Calm Calm - N/A   Clear
10:53 PM 18.0 °F 9.8 °F 7.0 °F 62% 30.30 in 10.0 mi SSE 5.8 mph - N/A   Clear